| time (UTC) | temp F | wind direction | speed MPH | gust MPH | rain 1hr in | rain 24hr in | rain mn in | humidity % | barometer mb |
| 20260504004516 | 61 | 0 | 0.0 | 0.0 | 0.00 | 0.00 | 0.00 | 9 | 1008.8 |
| 20260504004452 | 62 | 0 | 0.0 | 0.0 | 0.00 | 0.00 | 0.00 | 9 | 1008.9 |
| 20260504004051 | 62 | 0 | 0.0 | 0.0 | 0.00 | 0.00 | 0.00 | 9 | 1009.0 |
| 20260504003621 | 62 | 0 | 0.0 | 0.0 | 0.00 | 0.00 | 0.00 | 9 | 1008.9 |
| 20260504003604 | 62 | 0 | 0.0 | 0.0 | 0.00 | 0.00 | 0.00 | 9 | 1009.2 |
| 20260504003136 | 62 | 247 | 0.0 | 1.0 | 0.00 | 0.00 | 0.00 | 9 | 1008.9 |
| 20260504002711 | 61 | 247 | 0.0 | 1.0 | 0.00 | 0.00 | 0.00 | 9 | 1009.3 |
| 20260504002514 | 61 | 247 | 0.0 | 1.0 | 0.00 | 0.00 | 0.00 | 9 | 1009.3 |
| 20260504002426 | 61 | 247 | 0.0 | 1.0 | 0.00 | 0.00 | 0.00 | 9 | 1009.3 |
| 20260504002003 | 61 | 0 | 0.0 | 0.0 | 0.00 | 0.00 | 0.00 | 9 | 1009.3 |
| 20260504001530 | 61 | 0 | 0.0 | 0.0 | 0.00 | 0.00 | 0.00 | 9 | 1009.4 |
| 20260504001043 | 61 | 0 | 0.0 | 0.0 | 0.00 | 0.00 | 0.00 | 9 | 1009.3 |
| 20260504000701 | 61 | 0 | 0.0 | 0.0 | 0.00 | 0.00 | 0.00 | 9 | 1009.4 |
| 20260504000626 | 61 | 0 | 0.0 | 0.0 | 0.00 | 0.00 | 0.00 | 9 | 1009.4 |
| 20260504000201 | 61 | 0 | 0.0 | 0.0 | 0.00 | 0.00 | 0.00 | 9 | 1009.5 |
| 20260503235709 | 61 | 0 | 0.0 | 0.0 | 0.00 | 0.00 | 0.00 | 9 | 1009.6 |
| 20260503235706 | 61 | 0 | 0.0 | 0.0 | 0.00 | 0.00 | 0.00 | 9 | 1009.6 |
| 20260503235411 | 61 | 0 | 0.0 | 0.0 | 0.00 | 0.00 | 0.00 | 9 | 1009.5 |
| 20260503235338 | 61 | 0 | 0.0 | 0.0 | 0.00 | 0.00 | 0.00 | 9 | 1009.5 |
| 20260503235000 | 61 | 0 | 0.0 | 0.0 | 0.00 | 0.00 | 0.00 | 9 | 1009.6 |
| 20260503234514 | 61 | 0 | 0.0 | 0.0 | 0.00 | 0.00 | 0.00 | 9 | 1009.7 |
| 20260503234452 | 61 | 0 | 0.0 | 0.0 | 0.00 | 0.00 | 0.00 | 9 | 1009.8 |
| 20260503234050 | 61 | 0 | 0.0 | 0.0 | 0.00 | 0.00 | 0.00 | 9 | 1009.7 |
| 20260503233620 | 62 | 0 | 0.0 | 0.0 | 0.00 | 0.00 | 0.00 | 9 | 1009.8 |
| 20260503233602 | 62 | 0 | 0.0 | 1.0 | 0.00 | 0.00 | 0.00 | 9 | 1009.8 |
| 20260503233135 | 61 | 0 | 0.0 | 0.0 | 0.00 | 0.00 | 0.00 | 9 | 1009.9 |
| 20260503232713 | 61 | 0 | 0.0 | 0.0 | 0.00 | 0.00 | 0.00 | 9 | 1009.8 |
| 20260503232710 | 61 | 0 | 0.0 | 0.0 | 0.00 | 0.00 | 0.00 | 9 | 1009.8 |
| 20260503232513 | 61 | 0 | 0.0 | 0.0 | 0.00 | 0.00 | 0.00 | 9 | 1009.8 |
| 20260503232052 | 61 | 0 | 0.0 | 0.0 | 0.00 | 0.00 | 0.00 | 9 | 1010.0 |
| 20260503231659 | 61 | 0 | 0.0 | 0.0 | 0.00 | 0.00 | 0.00 | 9 | 1010.0 |
| 20260503231551 | 61 | 0 | 0.0 | 0.0 | 0.00 | 0.00 | 0.00 | 9 | 1009.9 |
| 20260503231120 | 61 | 0 | 0.0 | 0.0 | 0.00 | 0.00 | 0.00 | 9 | 1010.0 |
| 20260503230636 | 61 | 270 | 1.0 | 2.0 | 0.00 | 0.00 | 0.00 | 9 | 1010.0 |
| 20260503230202 | 61 | 270 | 1.0 | 2.0 | 0.00 | 0.00 | 0.00 | 9 | 1009.9 |
| 20260503225706 | 61 | 292 | 1.0 | 2.0 | 0.00 | 0.00 | 0.00 | 9 | 1009.9 |
| 20260503225321 | 61 | 270 | 2.0 | 2.0 | 0.00 | 0.00 | 0.00 | 9 | 1009.8 |
| 20260503224910 | 61 | 292 | 1.0 | 2.0 | 0.00 | 0.00 | 0.00 | 9 | 1009.9 |
| 20260503224455 | 61 | 315 | 2.0 | 3.0 | 0.00 | 0.00 | 0.00 | 9 | 1009.9 |
| 20260503224025 | 61 | 292 | 2.0 | 2.0 | 0.00 | 0.00 | 0.00 | 9 | 1009.8 |
| 20260503223533 | 61 | 292 | 1.0 | 2.0 | 0.00 | 0.00 | 0.00 | 9 | 1009.8 |
| 20260503223123 | 61 | 292 | 2.0 | 2.0 | 0.00 | 0.00 | 0.00 | 9 | 1009.9 |
| 20260503222719 | 61 | 292 | 2.0 | 2.0 | 0.00 | 0.00 | 0.00 | 9 | 1010.0 |
| 20260503222715 | 61 | 292 | 2.0 | 2.0 | 0.00 | 0.00 | 0.00 | 9 | 1010.0 |
| 20260503222406 | 61 | 315 | 2.0 | 2.0 | 0.00 | 0.00 | 0.00 | 9 | 1009.9 |
| 20260503221951 | 62 | 315 | 1.0 | 2.0 | 0.00 | 0.00 | 0.00 | 9 | 1009.9 |
| 20260503221442 | 61 | 0 | 0.0 | 0.0 | 0.00 | 0.00 | 0.00 | 9 | 1009.8 |
| 20260503221041 | 61 | 0 | 0.0 | 0.0 | 0.00 | 0.00 | 0.00 | 9 | 1009.8 |
| 20260503220554 | 62 | 0 | 0.0 | 0.0 | 0.00 | 0.00 | 0.00 | 9 | 1010.0 |
| 20260503220126 | 62 | 112 | 3.0 | 3.0 | 0.00 | 0.00 | 0.00 | 9 | 1009.8 |
| 20260503215704 | 62 | 112 | 3.0 | 3.0 | 0.00 | 0.00 | 0.00 | 9 | 1009.7 |
| 20260503215701 | 62 | 112 | 3.0 | 3.0 | 0.00 | 0.00 | 0.00 | 9 | 1009.7 |
| 20260503215406 | 62 | 112 | 3.0 | 3.0 | 0.00 | 0.00 | 0.00 | 9 | 1009.8 |
| 20260503214943 | 62 | 112 | 1.0 | 2.0 | 0.00 | 0.00 | 0.00 | 9 | 1009.9 |
| 20260503214521 | 62 | 112 | 0.0 | 2.0 | 0.00 | 0.00 | 0.00 | 9 | 1009.9 |
| 20260503214053 | 62 | 0 | 0.0 | 1.0 | 0.00 | 0.00 | 0.00 | 9 | 1010.1 |
| 20260503213615 | 62 | 247 | 1.0 | 2.0 | 0.00 | 0.00 | 0.00 | 9 | 1010.2 |
| 20260503213131 | 62 | 202 | 1.0 | 2.0 | 0.00 | 0.00 | 0.00 | 9 | 1010.2 |
| 20260503212706 | 63 | 90 | 0.0 | 1.0 | 0.00 | 0.00 | 0.00 | 9 | 1010.0 |
| 20260503212403 | 63 | 90 | 0.0 | 1.0 | 0.00 | 0.00 | 0.00 | 9 | 1010.1 |
| 20260503212319 | 63 | 90 | 0.0 | 1.0 | 0.00 | 0.00 | 0.00 | 9 | 1010.1 |
| 20260503211929 | 63 | 90 | 2.0 | 3.0 | 0.00 | 0.00 | 0.00 | 9 | 1010.0 |
| 20260503211442 | 63 | 0 | 0.0 | 0.0 | 0.00 | 0.00 | 0.00 | 9 | 1010.2 |
| 20260503211040 | 63 | 270 | 1.0 | 2.0 | 0.00 | 0.00 | 0.00 | 9 | 1010.4 |
| 20260503210554 | 63 | 0 | 0.0 | 0.0 | 0.00 | 0.00 | 0.00 | 9 | 1010.3 |
| 20260503210126 | 63 | 0 | 0.0 | 0.0 | 0.00 | 0.00 | 0.00 | 9 | 1010.2 |
| 20260503205704 | 63 | 225 | 0.0 | 1.0 | 0.00 | 0.00 | 0.00 | 9 | 1010.1 |
| 20260503205701 | 63 | 225 | 0.0 | 1.0 | 0.00 | 0.00 | 0.00 | 9 | 1010.1 |
| 20260503205425 | 63 | 247 | 0.0 | 1.0 | 0.00 | 0.00 | 0.00 | 9 | 1010.2 |
| 20260503205409 | 63 | 225 | 0.0 | 1.0 | 0.00 | 0.00 | 0.00 | 9 | 1010.3 |
| 20260503204949 | 62 | 0 | 0.0 | 1.0 | 0.00 | 0.00 | 0.00 | 9 | 1010.0 |
| 20260503204531 | 63 | 270 | 1.0 | 2.0 | 0.00 | 0.00 | 0.00 | 9 | 1010.0 |
| 20260503204046 | 62 | 292 | 1.0 | 2.0 | 0.00 | 0.00 | 0.00 | 9 | 1010.0 |
| 20260503203706 | 62 | 247 | 0.0 | 1.0 | 0.00 | 0.00 | 0.00 | 9 | 1010.0 |
| 20260503203629 | 62 | 247 | 0.0 | 1.0 | 0.00 | 0.00 | 0.00 | 9 | 1010.0 |
| 20260503203204 | 62 | 157 | 1.0 | 2.0 | 0.00 | 0.00 | 0.00 | 9 | 1009.9 |
| 20260503202712 | 62 | 0 | 0.0 | 0.0 | 0.00 | 0.00 | 0.00 | 9 | 1009.7 |
| 20260503202709 | 62 | 0 | 0.0 | 0.0 | 0.00 | 0.00 | 0.00 | 9 | 1009.7 |
| 20260503202407 | 62 | 0 | 0.0 | 0.0 | 0.00 | 0.00 | 0.00 | 9 | 1009.7 |
| 20260503201940 | 62 | 0 | 0.0 | 0.0 | 0.00 | 0.00 | 0.00 | 9 | 1009.8 |
| 20260503201502 | 62 | 90 | 2.0 | 2.0 | 0.00 | 0.00 | 0.00 | 9 | 1009.3 |
| 20260503201051 | 62 | 90 | 2.0 | 2.0 | 0.00 | 0.00 | 0.00 | 9 | 1009.3 |
| 20260503200611 | 62 | 67 | 2.0 | 3.0 | 0.00 | 0.00 | 0.00 | 9 | 1009.3 |
| 20260503200127 | 62 | 67 | 1.0 | 2.0 | 0.00 | 0.00 | 0.00 | 9 | 1009.5 |
| 20260503195702 | 62 | 67 | 2.0 | 2.0 | 0.00 | 0.00 | 0.00 | 9 | 1009.2 |
| 20260503195443 | 62 | 67 | 2.0 | 2.0 | 0.00 | 0.00 | 0.00 | 9 | 1009.3 |
| 20260503194947 | 62 | 67 | 1.0 | 2.0 | 0.00 | 0.00 | 0.00 | 9 | 1009.1 |
| 20260503194529 | 62 | 90 | 2.0 | 2.0 | 0.00 | 0.00 | 0.00 | 9 | 1008.9 |
| 20260503194044 | 62 | 112 | 2.0 | 3.0 | 0.00 | 0.00 | 0.00 | 9 | 1008.8 |
| 20260503193705 | 62 | 112 | 2.0 | 3.0 | 0.00 | 0.00 | 0.00 | 9 | 1008.8 |
| 20260503193628 | 62 | 112 | 2.0 | 3.0 | 0.00 | 0.00 | 0.00 | 9 | 1008.8 |
| 20260503193202 | 62 | 112 | 3.0 | 4.0 | 0.00 | 0.00 | 0.00 | 9 | 1008.7 |
| 20260503192711 | 62 | 112 | 3.0 | 6.0 | 0.00 | 0.00 | 0.00 | 9 | 1008.6 |
| 20260503192708 | 62 | 112 | 3.0 | 6.0 | 0.00 | 0.00 | 0.00 | 9 | 1008.6 |
| 20260503192349 | 62 | 90 | 3.0 | 4.0 | 0.00 | 0.00 | 0.00 | 9 | 1008.7 |
| 20260503191930 | 62 | 112 | 3.0 | 4.0 | 0.00 | 0.00 | 0.00 | 9 | 1008.7 |
| 20260503191509 | 62 | 112 | 3.0 | 4.0 | 0.00 | 0.00 | 0.00 | 9 | 1008.6 |
| 20260503191043 | 62 | 112 | 3.0 | 4.0 | 0.00 | 0.00 | 0.00 | 9 | 1008.6 |
| 20260503190702 | 63 | 90 | 2.0 | 3.0 | 0.00 | 0.00 | 0.00 | 9 | 1008.8 |
| 20260503190625 | 63 | 90 | 2.0 | 3.0 | 0.00 | 0.00 | 0.00 | 9 | 1008.8 |
| 20260503190200 | 63 | 112 | 2.0 | 3.0 | 0.00 | 0.00 | 0.00 | 9 | 1008.8 |
| 20260503185705 | 63 | 112 | 3.0 | 4.0 | 0.00 | 0.00 | 0.00 | 9 | 1008.8 |
| 20260503185332 | 63 | 112 | 4.0 | 6.0 | 0.00 | 0.00 | 0.00 | 9 | 1008.8 |
| 20260503184932 | 63 | 112 | 3.0 | 3.0 | 0.00 | 0.00 | 0.00 | 9 | 1009.0 |
| 20260503184448 | 63 | 90 | 0.0 | 1.0 | 0.00 | 0.00 | 0.00 | 9 | 1009.0 |
| 20260503184044 | 63 | 90 | 1.0 | 2.0 | 0.00 | 0.00 | 0.00 | 9 | 1008.9 |
| 20260503183615 | 63 | 112 | 2.0 | 3.0 | 0.00 | 0.00 | 0.00 | 9 | 1008.7 |
| 20260503183129 | 63 | 90 | 3.0 | 4.0 | 0.00 | 0.00 | 0.00 | 9 | 1008.7 |
| 20260503182705 | 64 | 112 | 1.0 | 2.0 | 0.00 | 0.00 | 0.00 | 9 | 1008.7 |
| 20260503182323 | 64 | 90 | 2.0 | 3.0 | 0.00 | 0.00 | 0.00 | 9 | 1008.7 |
| 20260503181923 | 63 | 112 | 2.0 | 4.0 | 0.00 | 0.00 | 0.00 | 9 | 1008.7 |
| 20260503181439 | 63 | 112 | 3.0 | 3.0 | 0.00 | 0.00 | 0.00 | 9 | 1008.9 |
| 20260503181036 | 64 | 112 | 3.0 | 6.0 | 0.00 | 0.00 | 0.00 | 9 | 1008.7 |
| 20260503180549 | 64 | 112 | 3.0 | 3.0 | 0.00 | 0.00 | 0.00 | 8 | 1008.7 |
| 20260503180121 | 64 | 90 | 3.0 | 6.0 | 0.00 | 0.00 | 0.00 | 8 | 1008.7 |
| 20260503175656 | 64 | 112 | 5.0 | 8.0 | 0.00 | 0.00 | 0.00 | 8 | 1008.6 |
| 20260503175424 | 64 | 90 | 4.0 | 6.0 | 0.00 | 0.00 | 0.00 | 8 | 1008.6 |
| 20260503175002 | 64 | 112 | 3.0 | 6.0 | 0.00 | 0.00 | 0.00 | 8 | 1008.8 |
| 20260503174512 | 64 | 112 | 4.0 | 6.0 | 0.00 | 0.00 | 0.00 | 8 | 1008.4 |
| 20260503174042 | 64 | 112 | 6.0 | 8.0 | 0.00 | 0.00 | 0.00 | 8 | 1008.4 |
| 20260503173606 | 64 | 112 | 6.0 | 6.0 | 0.00 | 0.00 | 0.00 | 8 | 1008.5 |
| 20260503173139 | 64 | 112 | 5.0 | 8.0 | 0.00 | 0.00 | 0.00 | 8 | 1008.6 |
| 20260503172716 | 65 | 112 | 6.0 | 8.0 | 0.00 | 0.00 | 0.00 | 8 | 1008.6 |
| 20260503172713 | 65 | 112 | 6.0 | 8.0 | 0.00 | 0.00 | 0.00 | 8 | 1008.6 |
| 20260503172352 | 65 | 112 | 3.0 | 6.0 | 0.00 | 0.00 | 0.00 | 8 | 1008.6 |
| 20260503172253 | 65 | 112 | 3.0 | 6.0 | 0.00 | 0.00 | 0.00 | 8 | 1008.6 |
| 20260503171902 | 65 | 112 | 3.0 | 4.0 | 0.00 | 0.00 | 0.00 | 8 | 1008.9 |
| 20260503171455 | 65 | 135 | 4.0 | 6.0 | 0.00 | 0.00 | 0.00 | 8 | 1008.9 |
| 20260503171358 | 65 | 112 | 5.0 | 6.0 | 0.00 | 0.00 | 0.00 | 8 | 1008.8 |
| 20260503171016 | 65 | 90 | 4.0 | 6.0 | 0.00 | 0.00 | 0.00 | 8 | 1009.0 |
| 20260503170531 | 65 | 112 | 3.0 | 4.0 | 0.00 | 0.00 | 0.00 | 8 | 1008.7 |
| 20260503170116 | 65 | 112 | 6.0 | 8.0 | 0.00 | 0.00 | 0.00 | 8 | 1008.8 |
| 20260503160120 | 65 | 112 | 6.0 | 9.0 | 0.00 | 0.00 | 0.00 | 8 | 1008.6 |
| 20260503150615 | 65 | 112 | 8.0 | 10.0 | 0.00 | 0.00 | 0.00 | 8 | 1009.1 |
| 20260503150557 | 65 | 112 | 6.0 | 9.0 | 0.00 | 0.00 | 0.00 | 8 | 1009.1 |
| 20260503150130 | 65 | 135 | 9.0 | 13.0 | 0.00 | 0.00 | 0.00 | 8 | 1009.2 |
| 20260503140154 | 65 | 135 | 6.0 | 10.0 | 0.00 | 0.00 | 0.00 | 8 | 1009.9 |
| 20260503131041 | 66 | 90 | 7.0 | 9.0 | 0.00 | 0.00 | 0.00 | 8 | 1009.9 |
| 20260503130700 | 66 | 112 | 8.0 | 12.0 | 0.00 | 0.00 | 0.00 | 7 | 1009.9 |
| 20260503130624 | 66 | 112 | 8.0 | 12.0 | 0.00 | 0.00 | 0.00 | 7 | 1009.9 |
| 20260503130158 | 67 | 112 | 8.0 | 10.0 | 0.00 | 0.00 | 0.00 | 7 | 1010.0 |
| 20260503110653 | 68 | 112 | 1.0 | 4.0 | 0.00 | 0.00 | 0.00 | 7 | 1010.6 |
| 20260503110218 | 67 | 67 | 3.0 | 4.0 | 0.00 | 0.00 | 0.00 | 7 | 1010.7 |
| 20260503110121 | 67 | 67 | 3.0 | 4.0 | 0.00 | 0.00 | 0.00 | 7 | 1010.7 |
| 20260503100132 | 66 | 112 | 5.0 | 6.0 | 0.00 | 0.00 | 0.00 | 8 | 1011.5 |
| 20260503090114 | 65 | 90 | 3.0 | 6.0 | 0.00 | 0.00 | 0.00 | 8 | 1011.6 |
| 20260503081527 | 64 | 112 | 2.0 | 3.0 | 0.00 | 0.00 | 0.00 | 8 | 1011.6 |
| 20260503081359 | 64 | 112 | 3.0 | 4.0 | 0.00 | 0.00 | 0.00 | 8 | 1011.7 |
| 20260503081107 | 64 | 112 | 4.0 | 6.0 | 0.00 | 0.00 | 0.00 | 8 | 1011.6 |
| 20260503080607 | 64 | 90 | 3.0 | 4.0 | 0.00 | 0.00 | 0.00 | 9 | 1011.7 |
| 20260503080532 | 64 | 90 | 3.0 | 4.0 | 0.00 | 0.00 | 0.00 | 9 | 1011.7 |
| 20260503080118 | 64 | 112 | 3.0 | 4.0 | 0.00 | 0.00 | 0.00 | 9 | 1011.6 |
| 20260503072709 | 63 | 202 | 0.0 | 1.0 | 0.00 | 0.00 | 0.00 | 9 | 1011.6 |
| 20260503072707 | 63 | 202 | 0.0 | 1.0 | 0.00 | 0.00 | 0.00 | 9 | 1011.6 |
| 20260503072334 | 63 | 202 | 0.0 | 1.0 | 0.00 | 0.00 | 0.00 | 9 | 1011.6 |
| 20260503071903 | 63 | 112 | 1.0 | 2.0 | 0.00 | 0.00 | 0.00 | 9 | 1011.5 |
| 20260503071536 | 63 | 112 | 0.0 | 1.0 | 0.00 | 0.00 | 0.00 | 9 | 1011.3 |
| 20260503071453 | 63 | 90 | 0.0 | 2.0 | 0.00 | 0.00 | 0.00 | 9 | 1011.4 |
| 20260503071019 | 63 | 90 | 2.0 | 3.0 | 0.00 | 0.00 | 0.00 | 9 | 1011.3 |
| 20260503070536 | 63 | 0 | 0.0 | 1.0 | 0.00 | 0.00 | 0.00 | 9 | 1011.2 |
| 20260503070118 | 63 | 90 | 0.0 | 2.0 | 0.00 | 0.00 | 0.00 | 9 | 1011.1 |
| 20260503060159 | 62 | 0 | 0.0 | 0.0 | 0.00 | 0.00 | 0.00 | 9 | 1011.1 |
| 20260503054950 | 62 | 0 | 0.0 | 0.0 | 0.00 | 0.00 | 0.00 | 9 | 1011.1 |
| 20260503054603 | 62 | 0 | 0.0 | 0.0 | 0.00 | 0.00 | 0.00 | 9 | 1011.0 |
| 20260503054531 | 62 | 0 | 0.0 | 0.0 | 0.00 | 0.00 | 0.00 | 9 | 1011.0 |
| 20260503054047 | 62 | 0 | 0.0 | 0.0 | 0.00 | 0.00 | 0.00 | 9 | 1011.0 |
| 20260503053705 | 62 | 202 | 0.0 | 1.0 | 0.00 | 0.00 | 0.00 | 9 | 1011.2 |
| 20260503053629 | 62 | 202 | 0.0 | 1.0 | 0.00 | 0.00 | 0.00 | 9 | 1011.2 |
| 20260503053205 | 62 | 0 | 0.0 | 0.0 | 0.00 | 0.00 | 0.00 | 9 | 1011.0 |
| 20260503052713 | 62 | 0 | 0.0 | 1.0 | 0.00 | 0.00 | 0.00 | 9 | 1011.2 |
| 20260503052710 | 62 | 0 | 0.0 | 1.0 | 0.00 | 0.00 | 0.00 | 9 | 1011.2 |
| 20260503052524 | 62 | 0 | 0.0 | 1.0 | 0.00 | 0.00 | 0.00 | 9 | 1011.2 |
| 20260503052427 | 62 | 0 | 0.0 | 0.0 | 0.00 | 0.00 | 0.00 | 9 | 1010.9 |
| 20260503051955 | 62 | 0 | 0.0 | 0.0 | 0.00 | 0.00 | 0.00 | 9 | 1011.0 |
| 20260503051617 | 62 | 202 | 0.0 | 2.0 | 0.00 | 0.00 | 0.00 | 9 | 1011.0 |
| 20260503051505 | 62 | 225 | 0.0 | 1.0 | 0.00 | 0.00 | 0.00 | 9 | 1010.9 |
| 20260503051034 | 62 | 0 | 0.0 | 0.0 | 0.00 | 0.00 | 0.00 | 9 | 1010.8 |
| 20260503050652 | 62 | 202 | 0.0 | 1.0 | 0.00 | 0.00 | 0.00 | 9 | 1010.8 |
| 20260503050615 | 62 | 202 | 0.0 | 1.0 | 0.00 | 0.00 | 0.00 | 9 | 1010.8 |
| 20260503050150 | 62 | 0 | 0.0 | 0.0 | 0.00 | 0.00 | 0.00 | 9 | 1010.9 |
| 20260503045655 | 62 | 202 | 0.0 | 1.0 | 0.00 | 0.00 | 0.00 | 9 | 1010.8 |
| 20260503045327 | 62 | 0 | 0.0 | 1.0 | 0.00 | 0.00 | 0.00 | 9 | 1010.8 |
| 20260503044859 | 62 | 292 | 1.0 | 2.0 | 0.00 | 0.00 | 0.00 | 9 | 1010.7 |
| 20260503044448 | 62 | 292 | 1.0 | 2.0 | 0.00 | 0.00 | 0.00 | 9 | 1010.9 |
| 20260503044016 | 62 | 0 | 0.0 | 0.0 | 0.00 | 0.00 | 0.00 | 9 | 1010.9 |
| 20260503043614 | 62 | 0 | 0.0 | 0.0 | 0.00 | 0.00 | 0.00 | 9 | 1010.9 |
| 20260503043131 | 62 | 0 | 0.0 | 0.0 | 0.00 | 0.00 | 0.00 | 9 | 1010.9 |
| 20260503042707 | 62 | 0 | 0.0 | 0.0 | 0.00 | 0.00 | 0.00 | 9 | 1011.0 |
| 20260503042345 | 62 | 0 | 0.0 | 0.0 | 0.00 | 0.00 | 0.00 | 9 | 1011.0 |
| 20260503041900 | 61 | 0 | 0.0 | 0.0 | 0.00 | 0.00 | 0.00 | 9 | 1011.0 |
| 20260503041428 | 62 | 0 | 0.0 | 0.0 | 0.00 | 0.00 | 0.00 | 9 | 1011.0 |
| 20260503041409 | 62 | 0 | 0.0 | 0.0 | 0.00 | 0.00 | 0.00 | 9 | 1011.0 |
| 20260503041023 | 62 | 0 | 0.0 | 0.0 | 0.00 | 0.00 | 0.00 | 9 | 1010.9 |
| 20260503040609 | 62 | 0 | 0.0 | 0.0 | 0.00 | 0.00 | 0.00 | 9 | 1010.7 |
| 20260503040120 | 62 | 0 | 0.0 | 0.0 | 0.00 | 0.00 | 0.00 | 9 | 1010.9 |
| 20260503035708 | 62 | 202 | 0.0 | 1.0 | 0.00 | 0.00 | 0.00 | 9 | 1010.7 |
| 20260503035519 | 62 | 202 | 0.0 | 1.0 | 0.00 | 0.00 | 0.00 | 9 | 1010.7 |
| 20260503035318 | 61 | 0 | 0.0 | 0.0 | 0.00 | 0.00 | 0.00 | 9 | 1010.8 |
| 20260503035021 | 62 | 0 | 0.0 | 0.0 | 0.00 | 0.00 | 0.00 | 9 | 1010.7 |
| 20260503034517 | 62 | 0 | 0.0 | 1.0 | 0.00 | 0.00 | 0.00 | 9 | 1010.7 |
| 20260503034119 | 61 | 0 | 0.0 | 0.0 | 0.00 | 0.00 | 0.00 | 9 | 1010.8 |
| 20260503033630 | 62 | 0 | 0.0 | 0.0 | 0.00 | 0.00 | 0.00 | 9 | 1011.0 |
| 20260503033202 | 61 | 0 | 0.0 | 0.0 | 0.00 | 0.00 | 0.00 | 9 | 1010.9 |
| 20260503032715 | 61 | 270 | 1.0 | 3.0 | 0.00 | 0.00 | 0.00 | 9 | 1011.2 |
| 20260503032713 | 61 | 270 | 1.0 | 3.0 | 0.00 | 0.00 | 0.00 | 9 | 1011.2 |
| 20260503032431 | 61 | 270 | 1.0 | 2.0 | 0.00 | 0.00 | 0.00 | 9 | 1011.1 |
| 20260503032016 | 61 | 292 | 1.0 | 2.0 | 0.00 | 0.00 | 0.00 | 9 | 1011.1 |
| 20260503031519 | 61 | 270 | 0.0 | 1.0 | 0.00 | 0.00 | 0.00 | 9 | 1010.9 |
| 20260503031056 | 61 | 292 | 1.0 | 2.0 | 0.00 | 0.00 | 0.00 | 9 | 1011.0 |
| 20260503030615 | 62 | 0 | 0.0 | 0.0 | 0.00 | 0.00 | 0.00 | 9 | 1010.9 |
| 20260503030131 | 62 | 0 | 0.0 | 0.0 | 0.00 | 0.00 | 0.00 | 9 | 1010.9 |
| 20260503025706 | 61 | 0 | 0.0 | 0.0 | 0.00 | 0.00 | 0.00 | 9 | 1010.7 |
| 20260503025500 | 61 | 0 | 0.0 | 0.0 | 0.00 | 0.00 | 0.00 | 9 | 1010.7 |
| 20260503025343 | 61 | 0 | 0.0 | 0.0 | 0.00 | 0.00 | 0.00 | 9 | 1010.9 |
| 20260503024913 | 61 | 0 | 0.0 | 0.0 | 0.00 | 0.00 | 0.00 | 9 | 1010.9 |
| 20260503024545 | 61 | 0 | 0.0 | 0.0 | 0.00 | 0.00 | 0.00 | 9 | 1010.9 |
| 20260503024507 | 61 | 0 | 0.0 | 0.0 | 0.00 | 0.00 | 0.00 | 9 | 1010.9 |
| 20260503024048 | 62 | 225 | 0.0 | 1.0 | 0.00 | 0.00 | 0.00 | 9 | 1010.9 |
| 20260503023545 | 61 | 292 | 1.0 | 1.0 | 0.00 | 0.00 | 0.00 | 9 | 1011.1 |
| 20260503023127 | 61 | 292 | 1.0 | 2.0 | 0.00 | 0.00 | 0.00 | 9 | 1011.3 |
| 20260503022715 | 61 | 270 | 2.0 | 2.0 | 0.00 | 0.00 | 0.00 | 9 | 1011.5 |
| 20260503022713 | 61 | 270 | 2.0 | 2.0 | 0.00 | 0.00 | 0.00 | 9 | 1011.5 |
| 20260503022513 | 61 | 270 | 2.0 | 3.0 | 0.00 | 0.00 | 0.00 | 9 | 1011.4 |
| 20260503022226 | 62 | 0 | 0.0 | 0.0 | 0.00 | 0.00 | 0.00 | 9 | 1011.5 |
| 20260503022017 | 62 | 0 | 0.0 | 0.0 | 0.00 | 0.00 | 0.00 | 9 | 1011.6 |
| 20260503021532 | 62 | 0 | 0.0 | 0.0 | 0.00 | 0.00 | 0.00 | 9 | 1011.5 |
| 20260503021404 | 62 | 0 | 0.0 | 0.0 | 0.00 | 0.00 | 0.00 | 9 | 1011.6 |
| 20260503021046 | 62 | 202 | 0.0 | 2.0 | 0.00 | 0.00 | 0.00 | 9 | 1011.6 |
| 20260503020615 | 62 | 0 | 0.0 | 0.0 | 0.00 | 0.00 | 0.00 | 9 | 1011.7 |
| 20260503020122 | 62 | 0 | 0.0 | 0.0 | 0.00 | 0.00 | 0.00 | 9 | 1011.5 |
| 20260503015710 | 62 | 0 | 0.0 | 0.0 | 0.00 | 0.00 | 0.00 | 9 | 1011.6 |
| 20260503015708 | 62 | 0 | 0.0 | 0.0 | 0.00 | 0.00 | 0.00 | 9 | 1011.6 |
| 20260503015706 | 62 | 0 | 0.0 | 0.0 | 0.00 | 0.00 | 0.00 | 9 | 1011.6 |
| 20260503015443 | 62 | 0 | 0.0 | 0.0 | 0.00 | 0.00 | 0.00 | 9 | 1011.7 |
| 20260503015010 | 62 | 0 | 0.0 | 0.0 | 0.00 | 0.00 | 0.00 | 9 | 1011.7 |
| 20260503014554 | 62 | 0 | 0.0 | 0.0 | 0.00 | 0.00 | 0.00 | 9 | 1011.7 |
| 20260503014120 | 62 | 180 | 0.0 | 1.0 | 0.00 | 0.00 | 0.00 | 9 | 1011.8 |
| 20260503013632 | 62 | 180 | 0.0 | 2.0 | 0.00 | 0.00 | 0.00 | 9 | 1011.8 |
| 20260503013203 | 62 | 270 | 0.0 | 1.0 | 0.00 | 0.00 | 0.00 | 9 | 1011.8 |
| 20260503012713 | 63 | 0 | 0.0 | 0.0 | 0.00 | 0.00 | 0.00 | 9 | 1012.0 |
| 20260503012241 | 63 | 270 | 1.0 | 1.0 | 0.00 | 0.00 | 0.00 | 9 | 1012.1 |
| 20260503011836 | 63 | 0 | 0.0 | 0.0 | 0.00 | 0.00 | 0.00 | 9 | 1012.1 |
| 20260503011537 | 63 | 0 | 0.0 | 1.0 | 0.00 | 0.00 | 0.00 | 9 | 1012.1 |
| 20260503011427 | 63 | 0 | 0.0 | 1.0 | 0.00 | 0.00 | 0.00 | 9 | 1012.3 |
| 20260503011025 | 63 | 0 | 0.0 | 0.0 | 0.00 | 0.00 | 0.00 | 9 | 1012.1 |
| 20260503010611 | 63 | 0 | 0.0 | 1.0 | 0.00 | 0.00 | 0.00 | 9 | 1012.0 |
| 20260503010538 | 63 | 0 | 0.0 | 1.0 | 0.00 | 0.00 | 0.00 | 9 | 1012.0 |
| 20260503010121 | 63 | 180 | 0.0 | 1.0 | 0.00 | 0.00 | 0.00 | 9 | 1012.2 |
| 20260503005712 | 63 | 0 | 0.0 | 0.0 | 0.00 | 0.00 | 0.00 | 9 | 1012.3 |
| 20260503005710 | 63 | 0 | 0.0 | 0.0 | 0.00 | 0.00 | 0.00 | 9 | 1012.3 |
| 20260503005423 | 63 | 0 | 0.0 | 0.0 | 0.00 | 0.00 | 0.00 | 9 | 1012.3 |
| 20260503005305 | 63 | 0 | 0.0 | 1.0 | 0.00 | 0.00 | 0.00 | 9 | 1012.5 |
| 20260503004955 | 63 | 0 | 0.0 | 0.0 | 0.00 | 0.00 | 0.00 | 9 | 1012.4 |